MB7IWY-13 Weather Reports


time (UTC)temp
F
wind
direction
speed
knots
gust
knots
rain 1hr
in
rain 24hr
in
rain mn
in
humidity
%
barometer
mb
20260502163602 62 270 15.6 15.6 0.00 0.00 0.00 64 1033.8
20260502162702 63 270 15.6 15.6 0.00 0.00 0.00 62 1034.9
20260502161802 63 270 15.6 15.6 0.00 0.00 0.00 62 1034.9
20260502160902 63 270 15.6 15.6 0.00 0.00 0.00 62 1034.9
20260502151802 62 270 15.6 15.6 0.00 0.00 0.00 63 1034.9
20260502150923 62 270 15.6 15.6 0.00 0.00 0.00 63 1034.9
20260502123602 59 270 15.6 15.6 0.00 0.00 0.00 70 1036.9
20260502122702 58 270 15.6 15.6 0.00 0.00 0.00 71 1036.9
20260502121823 58 270 15.6 15.6 0.00 0.00 0.00 71 1036.9
20260502120902 58 270 15.6 15.6 0.00 0.00 0.00 71 1036.9
20260502115423 56 270 15.6 15.6 0.00 0.00 0.00 74 1036.9
20260502113602 56 270 15.6 15.6 0.00 0.00 0.00 74 1036.9
20260502112702 55 270 15.6 15.6 0.00 0.00 0.00 75 1037.9
20260502111802 55 270 15.6 15.6 0.00 0.00 0.00 75 1037.9
20260502110902 55 270 15.6 15.6 0.00 0.00 0.00 75 1037.9
20260502110002 54 270 15.6 15.6 0.00 0.00 0.00 77 1037.9
20260502105402 54 270 15.6 15.6 0.00 0.00 0.00 77 1037.9
20260502104502 54 270 15.6 15.6 0.00 0.00 0.00 77 1037.9
20260502103602 54 270 15.6 15.6 0.00 0.00 0.00 77 1037.9
20260502102702 54 270 15.6 15.6 0.00 0.00 0.00 77 1037.9
20260502101802 54 270 15.6 15.6 0.00 0.00 0.00 77 1037.9
20260502100902 54 270 15.6 15.6 0.00 0.00 0.00 77 1037.9
20260502090923 53 270 15.6 15.6 0.00 0.00 0.00 80 1037.9
20260502070902 49 270 15.6 15.6 0.00 0.00 0.00 89 1037.9
20260502070023 49 270 15.6 15.6 0.00 0.00 0.00 90 1037.9
20260502065423 49 270 15.6 15.6 0.00 0.00 0.00 90 1037.9
20260502064502 49 270 15.6 15.6 0.00 0.00 0.00 90 1037.9
20260502063623 49 270 15.6 15.6 0.00 0.00 0.00 90 1037.9
20260502062702 48 270 15.6 15.6 0.00 0.00 0.00 90 1037.9
20260502061802 48 270 15.6 15.6 0.00 0.00 0.00 90 1037.9
20260502060923 48 270 15.6 15.6 0.00 0.00 0.00 90 1037.9
20260502060023 48 270 15.6 15.6 0.00 0.00 0.00 91 1037.9
20260502055402 48 270 15.6 15.6 0.00 0.00 0.00 91 1037.9
20260502054502 48 270 15.6 15.6 0.00 0.00 0.00 91 1037.9
20260502053602 48 270 15.6 15.6 0.00 0.00 0.00 91 1037.9
20260502052702 48 270 15.6 15.6 0.00 0.00 0.00 92 1037.9
20260502051802 48 270 15.6 15.6 0.00 0.00 0.00 92 1037.9
20260502050923 48 270 15.6 15.6 0.00 0.00 0.00 92 1037.9
20260502050002 48 270 15.6 15.6 0.00 0.00 0.00 93 1037.9
20260502045423 48 270 15.6 15.6 0.00 0.00 0.00 93 1037.9
20260502044502 48 270 15.6 15.6 0.00 0.00 0.00 93 1037.9
20260502043602 48 270 15.6 15.6 0.00 0.00 0.00 93 1037.9
20260502042702 48 270 15.6 15.6 0.00 0.00 0.00 92 1037.9
20260502041802 48 270 15.6 15.6 0.00 0.00 0.00 92 1037.9
20260502040902 48 270 15.6 15.6 0.00 0.00 0.00 92 1037.9
20260502040023 48 270 15.6 15.6 0.00 0.00 0.00 93 1037.9
20260502035402 48 270 15.6 15.6 0.00 0.00 0.00 93 1037.9
20260502034502 48 270 15.6 15.6 0.00 0.00 0.00 93 1037.9
20260502033602 48 270 15.6 15.6 0.00 0.00 0.00 93 1037.9
20260502032702 48 270 15.6 15.6 0.00 0.00 0.00 92 1038.9
20260502031802 48 270 15.6 15.6 0.00 0.00 0.00 92 1038.9
20260502030902 48 270 15.6 15.6 0.00 0.00 0.00 92 1038.9
20260502030002 49 270 15.6 15.6 0.00 0.00 0.00 91 1037.9
20260502025402 49 270 15.6 15.6 0.00 0.00 0.00 91 1037.9
20260502024502 49 270 15.6 15.6 0.00 0.00 0.00 91 1037.9
20260502023602 49 270 15.6 15.6 0.00 0.00 0.00 91 1037.9
20260502022702 50 270 15.6 15.6 0.00 0.00 0.00 90 1038.9
20260502021823 50 270 15.6 15.6 0.00 0.00 0.00 90 1038.9
20260502020902 50 270 15.6 15.6 0.00 0.00 0.00 90 1038.9
20260502020002 50 270 15.6 15.6 0.00 0.00 0.00 89 1038.9
20260502015423 50 270 15.6 15.6 0.00 0.00 0.00 89 1038.9
20260502014502 50 270 15.6 15.6 0.00 0.00 0.00 89 1038.9
20260502013602 50 270 15.6 15.6 0.00 0.00 0.00 89 1038.9
20260502012723 50 270 15.6 15.6 0.00 0.00 0.00 89 1038.9
20260502011802 50 270 15.6 15.6 0.00 0.00 0.00 89 1038.9
20260502010902 50 270 15.6 15.6 0.00 0.00 0.00 89 1038.9
20260502010002 51 270 15.6 15.6 0.00 0.00 0.00 89 1038.9
20260502005423 51 270 15.6 15.6 0.00 0.00 0.00 89 1038.9
20260502004502 51 270 15.6 15.6 0.00 0.00 0.00 89 1038.9
20260502003602 51 270 15.6 15.6 0.00 0.00 0.00 89 1038.9
20260502002702 52 270 15.6 15.6 0.00 0.00 0.00 89 1038.9
20260502001802 52 270 15.6 15.6 0.00 0.00 0.00 89 1038.9
20260502000902 52 270 15.6 15.6 0.00 0.00 0.00 89 1038.9
20260502000002 52 270 15.6 15.6 0.00 0.00 0.00 89 1038.9
20260501235402 52 270 15.6 15.6 0.00 0.00 0.00 89 1038.9
20260501234502 52 270 15.6 15.6 0.00 0.00 0.00 89 1038.9
20260501233602 52 270 15.6 15.6 0.00 0.00 0.00 89 1038.9
20260501232702 53 270 15.6 15.6 0.00 0.00 0.00 89 1038.9
20260501231802 53 270 15.6 15.6 0.00 0.00 0.00 89 1038.9
20260501230902 53 270 15.6 15.6 0.00 0.00 0.00 89 1038.9
20260501230002 53 270 15.6 15.6 0.00 0.00 0.00 88 1038.9
20260501225402 53 270 15.6 15.6 0.00 0.00 0.00 88 1038.9
20260501224502 53 270 15.6 15.6 0.00 0.00 0.00 88 1038.9
20260501223602 53 270 15.6 15.6 0.00 0.00 0.00 88 1038.9
20260501222723 54 270 15.6 15.6 0.00 0.00 0.00 87 1040.0
20260501221802 54 270 15.6 15.6 0.00 0.00 0.00 87 1040.0
20260501220902 54 270 15.6 15.6 0.00 0.00 0.00 87 1040.0
20260501220002 54 270 15.6 15.6 0.00 0.00 0.00 86 1040.0
20260501215402 54 270 15.6 15.6 0.00 0.00 0.00 86 1040.0
20260501214502 54 270 15.6 15.6 0.00 0.00 0.00 86 1040.0
20260501213602 54 270 13.9 15.6 0.00 0.00 0.00 86 1040.0
20260501212723 54 270 12.2 12.2 0.00 0.00 0.00 85 1040.0
20260501211802 54 270 12.2 12.2 0.00 0.00 0.00 85 1040.0
20260501210902 54 270 13.0 17.4 0.00 0.00 0.00 85 1040.0
20260501210002 57 270 17.4 17.4 0.00 0.00 0.00 78 1040.0
20260501205402 57 270 17.4 17.4 0.00 0.00 0.00 78 1040.0
20260501204523 57 270 17.4 17.4 0.00 0.00 0.00 78 1040.0
20260501203602 57 270 17.4 17.4 0.00 0.00 0.00 78 1040.0
20260501202702 57 270 17.4 17.4 0.00 0.00 0.00 76 1038.9
20260501201802 57 270 17.4 17.4 0.00 0.00 0.00 76 1038.9
20260501200902 57 270 16.5 17.4 0.00 0.00 0.00 76 1038.9
20260501200002 57 270 14.8 14.8 0.00 0.00 0.00 75 1038.9
20260501195402 57 270 14.8 14.8 0.00 0.00 0.00 75 1038.9
20260501194523 57 270 14.8 14.8 0.00 0.00 0.00 75 1038.9
20260501193602 57 270 14.8 14.8 0.00 0.00 0.00 75 1038.9
20260501192723 59 270 13.9 13.9 0.00 0.00 0.00 72 1038.9
20260501191802 59 270 13.9 13.9 0.00 0.00 0.00 72 1038.9
20260501190902 59 274 13.9 13.9 0.00 0.00 0.00 72 1038.9
20260501190002 61 292 12.2 12.2 0.00 0.00 0.00 71 1038.9
20260501185423 61 292 12.2 12.2 0.00 0.00 0.00 71 1038.9
20260501184502 61 292 12.2 12.2 0.00 0.00 0.00 71 1038.9
20260501183602 61 292 12.2 12.2 0.00 0.00 0.00 71 1038.9
20260501182702 63 292 12.2 12.2 0.00 0.00 0.00 68 1038.9
20260501181802 63 292 12.2 12.2 0.00 0.00 0.00 68 1038.9
20260501180923 63 292 11.3 12.2 0.00 0.00 0.00 68 1038.9
20260501180002 66 292 9.6 9.6 0.00 0.00 0.00 63 1037.9
20260501175423 66 292 9.6 9.6 0.00 0.00 0.00 63 1037.9
20260501174502 66 292 9.6 9.6 0.00 0.00 0.00 63 1037.9
20260501173602 66 302 9.6 9.6 0.00 0.00 0.00 63 1037.9